Date,TemperatureHighF,TemperatureAvgF,TemperatureLowF,DewpointHighF,DewpointAvgF,DewpointLowF,HumidityHigh,HumidityAvg,HumidityLow,PressureMaxIn,PressureMinIn,WindSpeedMaxMPH,WindSpeedAvgMPH,GustSpeedMaxMPH,PrecipitationSumIn
2012-1-1,47.6,40.5,35.1,43.1,36.5,30.4,96,86,71,30.04,29.48,17,4,26,0.06
2012-1-2,34.6,29.4,18.8,31.2,23.3,12.5,93,78,62,29.89,29.60,19,4,24,0.00
2012-1-3,19.1,11.1,5.2,13.2,5.2,-0.2,92,77,62,30.27,29.89,12,2,16,0.00
2012-1-4,30.6,19.0,4.4,22.4,11.2,-0.4,82,72,54,30.26,29.84,9,3,14,0.00
2012-1-5,33.8,31.7,29.3,27.6,25.7,22.4,85,78,73,29.90,29.75,8,2,12,0.00
2012-1-6,51.1,42.3,32.5,37.0,32.9,26.3,81,69,57,29.75,29.59,10,3,18,0.01
2012-1-7,48.3,42.5,35.7,39.5,34.1,27.6,82,72,50,30.03,29.60,13,2,19,0.00
2012-1-8,35.3,29.3,22.0,27.8,22.9,19.0,90,77,66,30.34,30.03,8,2,14,0.01
2012-1-9,43.6,34.5,25.3,26.1,23.6,19.5,87,66,38,30.27,29.82,11,2,17,0.02
2012-1-10,40.3,38.5,34.3,32.3,29.7,26.0,83,71,57,29.99,29.78,11,3,16,0.00
2012-1-11,49.8,37.7,27.8,34.2,30.0,25.5,92,75,51,29.95,29.75,8,2,11,0.00
2012-1-12,42.5,42.3,42.1,41.7,41.5,41.3,97,97,97,29.30,29.28,0,0,1,0.00
2012-1-13,42.3,28.0,19.7,41.5,26.3,18.0,97,93,86,29.75,29.23,13,5,28,0.03
2012-1-14,23.2,16.1,8.6,21.5,12.4,4.2,93,85,79,30.24,29.75,8,2,17,0.00
2012-1-15,18.9,11.0,3.3,9.7,5.9,0.5,89,80,65,30.57,30.24,5,0,10,0.00
2012-1-16,38.8,24.2,5.0,35.0,17.0,1.7,94,75,53,30.54,29.86,8,3,16,0.36
2012-1-17,50.4,41.7,31.7,46.4,38.9,24.4,100,90,74,29.86,29.26,25,7,36,0.33
2012-1-18,31.2,22.4,16.0,23.6,15.0,10.0,87,73,56,30.19,29.65,16,3,25,0.00
2012-1-19,29.5,24.0,15.1,24.8,18.8,9.8,93,81,61,29.96,29.73,12,5,23,0.00
2012-1-20,22.1,17.0,14.1,12.9,10.6,8.5,88,76,61,30.30,29.97,7,1,11,0.01
2012-1-21,27.4,24.5,23.4,20.9,20.3,18.4,89,84,70,30.35,30.14,4,0,8,0.05
2012-1-22,35.0,25.0,14.0,28.0,19.1,11.9,93,79,58,30.39,30.10,10,2,16,0.01
2012-1-23,40.3,36.8,33.2,35.2,31.9,28.6,83,82,81,30.09,29.84,13,8,22,0.02
2012-1-25,30.1,29.9,29.8,26.6,26.2,26.0,87,86,85,30.28,30.22,0,0,1,0.00
2012-1-26,36.9,32.4,27.3,35.9,30.5,25.8,96,93,83,30.21,29.57,4,0,10,0.19
2012-1-27,43.7,37.1,33.6,43.4,35.0,27.7,99,92,75,29.91,29.27,12,2,21,0.54
2012-1-28,37.7,32.3,28.5,32.1,27.6,19.9,91,83,63,29.95,29.71,16,3,32,0.07
2012-1-29,35.5,30.6,26.8,31.3,25.2,17.7,95,81,59,30.02,29.89,13,2,32,0.02
2012-1-30,31.2,26.8,23.1,25.8,21.1,16.9,94,80,57,30.26,30.02,8,2,13,0.11
2012-1-31,54.0,42.7,28.0,41.0,34.0,24.9,90,72,58,30.01,29.79,8,2,16,0.17
2012-2-1,54.7,45.6,36.8,47.2,39.4,30.8,95,79,60,30.08,29.75,13,4,25,0.10
2012-2-2,36.8,31.9,29.8,30.9,27.7,23.2,91,84,76,30.38,30.07,5,1,11,0.00
2012-2-3,37.6,33.2,28.0,32.0,28.8,23.4,87,84,78,30.48,30.33,6,1,10,0.02
2012-2-4,37.3,32.9,26.7,32.1,27.8,24.1,92,82,63,30.34,30.17,5,0,9,0.00
2012-2-5,34.6,30.5,28.6,29.2,26.4,24.4,89,85,79,30.21,30.12,5,1,7,0.00
2012-2-6,47.3,38.3,31.0,34.1,30.1,25.0,92,74,49,30.12,29.91,12,4,18,0.00
2012-2-7,36.9,34.6,22.9,32.4,30.3,18.8,91,84,80,30.31,29.99,6,1,7,0.04
2012-2-8,30.3,25.4,19.5,22.2,19.8,16.6,90,79,69,30.32,30.12,5,1,10,0.00
2012-2-9,40.2,31.6,25.8,28.2,24.0,19.4,85,73,57,30.14,30.07,11,3,20,0.01
2012-2-10,34.8,31.7,29.7,27.3,23.7,21.9,85,72,60,30.07,29.86,6,2,16,0.00
2012-2-11,30.2,20.8,13.1,27.2,17.6,7.8,94,87,77,29.99,29.78,9,2,13,0.00
2012-2-12,25.3,20.2,15.5,21.3,16.7,13.4,93,86,74,29.97,29.85,10,3,20,0.00
2012-2-13,35.3,28.8,23.0,24.7,21.1,16.6,81,73,61,29.98,29.92,10,4,19,0.18
2012-2-14,35.7,32.7,28.2,32.4,26.1,18.0,95,77,58,29.98,29.91,8,2,10,0.03
2012-2-15,38.0,31.7,25.0,32.7,28.5,22.5,96,88,70,30.24,29.99,2,0,6,0.02
2012-2-16,41.5,35.5,24.5,39.7,32.7,22.5,95,89,77,30.23,29.86,9,2,12,0.05
2012-2-17,42.4,35.2,27.9,35.9,30.6,23.7,94,83,68,30.06,29.91,12,3,14,0.01
2012-2-18,40.6,31.9,25.2,35.3,28.7,22.6,95,88,73,30.14,29.81,10,2,20,0.15
2012-2-19,30.8,28.2,25.2,27.1,23.2,19.7,89,81,73,30.15,30.10,4,1,9,0.01
2012-2-20,37.0,27.2,18.7,24.4,20.4,16.5,93,76,53,30.36,30.13,5,0,7,0.00
2012-2-21,40.0,33.4,24.2,35.0,25.1,19.6,89,73,50,30.31,29.64,12,4,19,0.01
2012-2-22,45.3,37.7,32.5,38.9,34.0,31.0,96,87,69,29.65,29.41,10,3,18,0.05
2012-2-23,40.5,33.9,28.5,33.7,31.1,27.2,97,90,70,29.71,29.40,5,1,13,0.38
2012-2-24,43.6,37.7,34.6,42.0,34.0,28.3,97,87,75,29.35,29.21,16,6,33,0.21
2012-2-25,34.4,29.2,25.1,29.3,23.6,14.2,95,80,55,30.17,29.35,21,7,26,0.01
2012-2-26,32.7,26.4,17.5,21.8,18.7,13.9,89,73,60,30.45,30.18,5,1,10,0.08
2012-2-27,49.5,36.2,24.5,32.1,25.7,19.8,83,66,47,30.26,29.97,16,4,23,0.01
2012-2-28,35.1,30.8,26.6,27.5,23.2,21.2,86,73,64,30.49,30.26,12,2,20,0.00
2012-2-29,37.5,33.0,29.6,36.3,29.3,23.3,96,86,74,30.32,29.55,5,1,12,0.20
2012-3-1,42.1,38.6,36.3,40.8,35.7,33.5,97,89,74,29.89,29.49,9,2,21,0.20
2012-3-2,50.6,42.2,35.0,39.8,35.5,32.8,93,78,57,29.93,29.32,11,3,20,0.06
2012-3-3,48.7,39.5,31.8,44.7,31.5,26.2,87,73,54,29.62,29.20,22,8,29,0.03
2012-3-4,33.0,26.9,19.1,28.1,22.5,14.2,91,83,69,29.84,29.60,8,3,14,0.02
2012-3-5,25.2,18.6,11.7,14.8,11.1,7.6,86,73,50,30.42,29.85,8,2,15,0.00
2012-3-6,42.7,30.7,17.6,25.1,19.7,13.2,86,65,45,30.54,30.22,14,3,17,0.01
2012-3-7,66.6,54.2,41.3,42.3,32.9,23.7,54,45,32,30.23,30.00,14,4,20,0.00
2012-3-8,60.4,51.0,32.5,52.2,41.9,25.1,94,73,48,30.00,29.68,14,5,23,0.33
2012-3-9,37.1,30.7,25.0,31.8,23.0,12.8,93,73,51,30.34,30.00,14,4,29,0.04
2012-3-10,36.2,27.9,20.0,22.4,17.5,13.2,82,66,48,30.58,30.27,8,2,19,0.00
2012-3-11,61.9,48.5,31.3,32.8,28.2,22.5,70,47,31,30.29,30.22,11,4,18,0.00
2012-3-12,67.3,52.6,37.7,49.9,37.4,28.6,83,59,32,30.24,29.90,8,1,15,0.00
2012-3-13,63.4,56.8,48.0,54.6,49.8,39.8,94,78,58,30.01,29.80,15,4,25,0.18
2012-3-14,62.5,47.7,36.9,39.5,35.0,31.0,90,65,32,30.15,30.01,7,1,13,0.00
2012-3-15,73.0,53.9,44.4,53.3,41.1,29.1,82,63,46,30.14,29.99,8,1,13,0.00
2012-3-16,64.8,57.9,49.9,57.4,52.3,48.5,95,82,72,30.18,29.95,6,1,13,0.01
2012-3-17,68.9,53.2,44.2,57.3,49.6,43.4,99,88,65,30.25,30.16,5,1,8,0.00
2012-3-18,75.9,62.0,46.7,58.6,53.5,45.1,95,75,51,30.15,30.05,6,1,11,0.00
2012-3-19,73.2,61.7,53.4,60.3,56.3,52.1,97,83,64,30.13,30.06,4,0,8,0.00
2012-3-20,77.3,63.0,53.2,60.3,56.1,52.1,97,80,52,30.21,30.12,5,0,9,0.01
2012-3-21,78.9,65.1,55.9,60.7,56.1,52.7,90,74,47,30.24,30.12,5,0,8,0.00
2012-3-22,79.1,65.3,53.7,60.3,55.5,51.1,92,72,49,30.17,30.06,8,1,10,0.00
2012-3-23,63.4,56.3,51.3,53.6,46.9,33.1,92,72,42,30.16,30.03,6,1,16,0.00
2012-3-24,56.0,49.6,45.2,49.4,38.5,30.7,96,67,40,30.03,29.83,6,1,12,0.02
2012-3-25,60.4,50.5,42.9,51.1,47.3,40.8,97,89,68,29.84,29.77,7,2,13,0.10
2012-3-26,46.9,37.4,31.0,39.7,28.6,10.6,82,70,42,30.31,29.84,11,3,16,0.00
2012-3-27,42.6,33.2,22.0,24.8,16.1,8.5,66,50,32,30.40,29.92,4,1,13,0.00
2012-3-28,69.9,53.2,40.0,53.3,39.9,21.8,92,62,35,29.91,29.50,10,3,19,0.07
2012-3-29,42.1,38.3,36.6,38.5,33.1,27.2,95,82,68,30.11,29.72,8,2,14,0.15
2012-3-30,42.0,35.3,26.2,31.3,26.0,19.4,95,70,44,30.14,29.90,5,1,11,0.00
2012-3-31,43.9,36.0,31.5,36.2,33.1,29.6,96,90,69,29.94,29.85,7,1,11,0.24
2012-4-1,38.5,36.8,30.9,37.2,35.5,29.1,97,95,92,29.92,29.69,4,0,6,0.24
2012-4-2,51.3,41.6,32.1,37.1,29.3,20.2,98,67,31,29.99,29.77,7,1,14,0.00
2012-4-3,55.5,42.1,29.7,33.5,26.1,20.2,82,55,29,30.04,29.80,5,0,10,0.00
2012-4-4,53.5,45.4,37.8,38.0,32.0,27.6,76,60,43,29.83,29.70,15,2,23,0.00
2012-4-5,39.9,36.4,33.2,31.0,28.4,26.3,79,72,66,29.99,29.82,5,0,11,0.00
2012-4-6,48.1,43.3,39.5,27.6,25.7,22.4,62,50,36,30.14,30.10,6,1,12,0.00
2012-4-7,56.4,43.9,31.7,31.7,25.5,18.6,85,52,26,30.23,30.09,8,1,16,0.00
2012-4-8,62.1,46.7,35.2,42.9,31.3,23.2,80,57,30,30.08,29.76,14,3,21,0.02
2012-4-9,54.8,45.8,37.4,32.3,27.3,21.4,69,50,29,29.77,29.64,23,6,29,0.00
2012-4-10,47.2,41.6,35.8,36.7,30.8,24.0,92,66,44,29.82,29.62,11,3,18,0.02
2012-4-11,50.0,40.7,35.0,38.4,36.0,33.5,95,84,60,30.07,29.81,8,1,15,0.10
2012-4-12,53.3,44.9,38.9,36.9,33.0,30.7,85,64,44,30.17,30.07,8,1,12,0.00
2012-4-13,59.0,47.1,33.7,37.1,31.6,27.1,81,57,38,30.26,30.14,6,1,10,0.00
2012-4-14,66.7,53.1,38.5,50.5,36.6,28.0,78,55,32,30.15,29.92,7,1,16,0.00
2012-4-15,67.1,59.8,55.0,61.7,56.3,50.8,95,88,79,29.92,29.81,7,1,10,0.08
2012-4-16,86.3,68.7,56.2,62.9,56.0,46.1,96,66,39,29.93,29.67,11,2,25,0.00
2012-4-17,56.9,48.8,36.4,45.3,36.7,30.7,80,63,52,30.34,29.94,9,2,21,0.00
2012-4-18,51.0,40.1,28.7,36.6,31.2,26.7,94,72,53,30.35,30.05,7,1,9,0.00
2012-4-19,71.5,55.9,37.9,52.4,43.1,32.9,83,64,45,30.05,29.89,11,2,18,0.00
2012-4-20,81.0,61.7,50.0,56.2,49.3,46.1,89,67,30,29.90,29.61,13,1,16,0.00
2012-4-21,58.3,43.6,37.9,50.2,41.4,36.6,96,92,67,29.95,29.66,5,0,9,0.60
2012-4-22,41.3,39.2,37.3,38.5,36.8,35.8,97,91,83,29.96,29.78,9,2,17,0.10
2012-4-23,39.3,35.3,32.6,36.9,34.2,31.6,97,96,91,29.76,29.23,13,2,20,1.96
2012-4-24,43.3,38.0,33.0,39.3,35.1,32.2,97,90,73,29.60,29.20,11,2,19,0.30
2012-4-25,54.6,44.3,35.7,36.2,33.1,28.9,88,67,39,29.87,29.59,11,2,17,0.00
2012-4-26,61.0,44.9,35.0,43.2,37.3,31.1,93,76,45,29.84,29.55,7,2,19,0.10
2012-4-27,43.7,38.1,33.7,38.5,28.1,23.9,89,68,54,30.20,29.79,13,3,19,0.01
2012-4-28,47.8,38.1,26.4,34.0,26.2,12.2,93,65,25,30.29,30.17,5,0,8,0.00
2012-4-29,55.7,42.9,29.2,30.7,24.5,18.2,77,51,26,30.27,30.19,11,2,15,0.00
2012-4-30,58.5,44.2,30.9,46.4,33.3,23.6,93,69,27,30.28,29.92,6,1,10,0.15
2012-5-1,57.1,51.9,48.4,51.0,48.9,46.8,97,90,78,30.05,29.83,8,1,13,0.08
2012-5-2,70.3,58.3,46.7,62.0,53.2,45.3,97,84,63,30.05,29.84,7,0,10,0.02
2012-5-3,80.6,64.2,51.2,65.9,59.0,50.4,99,85,57,30.04,29.82,4,0,15,0.30
2012-5-4,72.5,65.1,55.1,64.6,60.2,54.0,98,85,69,29.95,29.84,6,1,12,0.01
2012-5-5,60.6,52.5,43.3,55.8,42.4,37.2,85,69,45,30.10,29.95,11,2,14,0.00
2012-5-6,64.5,52.1,38.5,46.0,38.2,30.1,95,64,29,30.12,30.05,7,1,10,0.00
2012-5-7,66.8,57.3,47.1,58.6,49.5,39.5,96,76,50,30.07,29.77,6,1,12,0.17
2012-5-8,64.2,59.5,53.6,61.0,57.7,51.6,98,94,85,29.77,29.68,7,1,9,0.42
2012-5-9,69.8,58.0,50.1,55.8,50.9,46.1,97,79,47,29.74,29.61,13,1,19,0.00
2012-5-10,58.8,51.3,44.8,45.4,38.9,32.8,87,65,40,29.85,29.63,13,3,22,0.00
2012-5-11,68.6,55.8,43.7,42.6,38.5,34.7,75,55,32,30.09,29.86,10,2,19,0.00
2012-5-12,76.2,67.1,49.7,50.3,44.8,41.1,77,47,31,30.16,30.09,9,2,21,0.00
2012-5-13,67.0,60.7,52.6,55.3,52.3,49.6,91,74,60,30.17,30.07,5,0,11,0.00
2012-5-14,74.6,61.2,50.9,58.8,53.8,49.8,97,79,47,30.08,29.97,4,0,8,0.00
2012-5-15,75.2,63.6,52.4,61.4,53.6,46.2,97,73,36,29.98,29.84,5,0,9,0.00
2012-5-16,73.1,58.4,46.3,54.9,47.6,38.5,85,68,51,30.05,29.77,9,1,18,0.00
2012-5-17,62.8,54.3,38.4,43.1,38.5,33.2,92,58,34,30.18,30.05,6,1,12,0.00
2012-5-18,70.6,56.6,41.0,49.2,41.6,37.2,91,61,32,30.20,30.10,5,1,10,0.00
2012-5-19,80.9,65.5,50.7,61.3,49.9,44.3,85,60,32,30.14,30.09,6,0,8,0.00
2012-5-20,85.7,69.4,53.5,61.3,55.1,49.8,93,64,34,30.18,30.05,5,1,9,0.00
2012-5-21,84.5,69.8,61.1,64.8,58.5,50.8,96,69,46,30.06,29.88,7,1,19,0.08
2012-5-22,76.6,67.8,61.5,66.6,63.3,59.8,96,86,68,29.88,29.78,4,0,8,0.01
2012-5-23,75.5,67.0,61.0,64.5,60.9,58.0,96,82,62,29.95,29.85,5,0,8,0.00
2012-5-24,84.0,72.1,58.0,66.1,61.5,56.9,97,72,49,30.01,29.91,9,2,15,0.00
2012-5-25,88.4,77.2,67.4,71.1,64.9,59.9,83,67,46,30.00,29.89,11,2,15,0.00
2012-5-26,79.3,69.7,58.0,60.6,55.1,50.1,87,62,39,30.14,30.01,5,0,10,0.00
2012-5-27,81.4,67.7,53.7,63.1,54.2,49.2,92,64,35,30.14,29.92,5,0,8,0.00
2012-5-28,90.6,75.1,59.5,74.2,64.8,55.8,93,72,49,29.95,29.72,9,1,15,0.01
2012-5-29,86.6,73.7,64.6,71.6,65.6,62.5,94,76,61,29.70,29.59,6,1,13,0.06
2012-5-30,73.1,66.4,59.2,62.9,55.0,48.2,96,69,44,29.80,29.67,6,1,13,0.01
2012-5-31,65.3,58.6,52.8,51.9,47.2,43.9,81,67,46,29.97,29.80,5,0,9,0.00
2012-6-1,60.9,59.2,58.3,59.7,49.2,45.4,97,71,61,29.97,29.53,6,0,8,0.44
2012-6-2,67.9,59.4,53.9,57.0,50.9,47.0,95,75,47,29.70,29.58,7,2,15,0.02
2012-6-3,66.5,58.1,53.4,57.7,53.3,48.7,96,85,67,29.66,29.61,4,1,10,0.74
2012-6-4,55.9,53.0,50.4,52.5,51.0,48.7,97,93,86,29.86,29.64,6,0,15,0.10
2012-6-5,68.4,60.5,51.3,53.5,51.1,49.0,93,73,53,29.96,29.86,4,1,9,0.00
2012-6-6,75.2,61.4,48.4,57.8,52.4,47.0,96,74,51,29.96,29.88,6,0,9,0.00
2012-6-7,77.6,64.6,52.8,61.2,54.7,50.3,95,73,39,29.97,29.88,5,0,16,0.00
2012-6-8,80.3,68.5,57.8,58.7,54.7,50.9,84,63,38,29.92,29.80,10,2,15,0.00
2012-6-9,74.3,67.7,59.9,65.4,61.4,52.5,96,81,64,29.90,29.81,8,1,13,0.50
2012-6-10,85.5,73.6,62.8,71.9,65.8,61.3,96,78,59,30.04,29.89,2,0,7,0.23
2012-6-11,90.5,77.6,65.0,69.5,65.6,62.2,93,69,43,30.03,29.91,8,1,13,0.01
2012-6-12,71.3,67.8,65.9,69.8,66.2,64.5,98,95,86,29.92,29.78,5,1,12,0.80
2012-6-13,69.5,63.7,54.1,55.6,53.4,51.4,94,70,56,30.16,30.08,5,1,10,0.00
2012-6-14,71.3,62.1,50.8,57.7,53.1,49.8,98,75,51,30.26,30.16,5,1,11,0.00
2012-6-15,80.6,67.9,52.8,64.4,56.2,50.8,93,68,45,30.25,30.18,6,1,9,0.00
2012-6-16,85.8,71.8,62.2,66.3,61.0,55.2,87,70,45,30.24,30.05,4,0,8,0.00
2012-6-17,85.8,74.5,64.1,66.4,62.2,58.5,83,66,51,30.06,29.82,12,2,14,0.00
2012-6-18,82.1,73.4,66.3,69.1,64.3,59.2,89,74,62,29.91,29.83,7,2,15,0.00
2012-6-19,87.2,76.8,66.1,73.4,67.9,62.9,96,75,58,29.98,29.89,7,2,14,0.34
2012-6-20,92.5,82.5,73.5,75.6,68.4,63.7,80,64,46,30.03,29.90,6,1,14,0.00
2012-6-21,90.2,80.0,68.5,71.4,66.2,62.5,86,65,44,29.92,29.73,6,1,16,0.00
2012-6-22,80.9,72.7,63.9,67.4,63.0,56.2,90,73,50,29.87,29.76,7,1,9,0.02
2012-6-23,79.6,69.2,57.9,63.8,57.8,53.3,87,69,45,29.99,29.87,9,1,12,0.00
2012-6-24,79.8,68.3,58.1,63.8,59.1,55.8,93,74,49,29.99,29.79,4,0,9,0.01
2012-6-25,68.5,63.6,60.7,59.8,53.9,48.2,93,72,50,29.85,29.75,7,1,15,0.00
2012-6-26,74.5,65.7,56.9,54.9,52.0,48.0,82,63,44,29.87,29.77,9,2,18,0.00
2012-6-27,76.7,68.4,57.6,58.1,54.6,50.4,90,63,42,29.85,29.76,13,2,19,0.00
2012-6-28,88.8,75.9,61.2,65.3,60.6,56.4,85,61,39,29.81,29.62,4,0,9,0.00
2012-6-29,89.2,79.6,70.2,67.3,63.0,56.9,84,59,35,29.68,29.59,10,2,17,0.00
2012-6-30,88.1,77.0,66.8,68.5,63.1,56.2,90,65,34,29.74,29.64,11,2,19,0.00
2012-7-1,84.0,74.8,65.9,65.6,61.2,57.7,87,64,45,29.88,29.73,8,1,13,0.00
2012-7-2,85.5,73.0,58.3,62.5,59.2,56.2,94,65,38,29.98,29.87,6,0,11,0.00
2012-7-3,87.9,72.7,60.5,71.4,63.4,57.2,90,74,46,29.93,29.74,7,0,12,0.03
2012-7-4,90.9,80.4,68.9,74.7,69.9,64.6,86,72,54,29.79,29.70,7,1,14,0.00
2012-7-5,85.0,74.5,66.1,66.4,63.8,60.6,90,71,45,29.88,29.75,4,0,9,0.00
2012-7-6,92.6,79.0,67.0,76.6,67.1,60.2,90,69,40,29.88,29.82,4,0,11,0.00
2012-7-7,78.9,73.4,68.2,71.4,68.2,63.8,95,84,68,29.92,29.80,8,0,21,0.07
2012-7-8,82.4,73.2,64.9,67.0,64.1,61.3,93,74,51,29.92,29.85,7,1,8,0.00
2012-7-9,80.2,71.1,58.5,62.1,56.4,52.1,93,63,38,30.00,29.90,5,0,9,0.00
2012-7-10,81.9,70.0,58.7,62.4,57.0,48.9,95,67,32,30.07,29.96,5,0,12,0.03
2012-7-11,84.4,74.3,56.8,62.0,55.0,50.8,90,55,33,30.14,30.07,6,0,8,0.00
2012-7-12,89.4,73.9,57.4,64.2,58.1,52.2,87,61,36,30.12,30.06,4,0,10,0.00
2012-7-13,93.2,77.5,66.0,70.4,65.0,59.3,88,67,39,30.13,30.06,4,0,9,0.00
2012-7-14,88.9,77.1,67.9,67.8,66.0,63.1,89,70,47,30.13,30.00,6,1,12,0.00
2012-7-15,86.1,76.6,70.2,73.5,68.2,64.5,90,77,50,30.03,29.88,5,0,8,0.02
2012-7-16,89.5,78.8,69.9,71.1,67.3,63.0,95,71,43,29.90,29.78,6,1,11,0.00
2012-7-17,95.4,84.4,72.7,73.1,68.2,60.5,92,59,46,29.79,29.64,12,2,19,0.32
2012-7-18,83.2,75.4,65.1,71.7,67.2,61.2,97,78,49,29.91,29.71,5,0,8,0.00
2012-7-19,75.5,68.4,60.6,64.3,59.0,53.0,96,73,56,29.99,29.89,9,1,10,0.00
2012-7-20,73.8,68.7,61.9,62.3,58.4,53.6,92,71,58,30.03,29.95,6,0,10,0.04
2012-7-21,84.4,70.3,58.2,66.2,61.0,57.4,98,76,43,30.06,29.96,6,1,10,0.00
2012-7-22,85.5,78.6,75.1,68.5,65.6,63.6,68,65,57,29.99,29.96,4,0,12,0.00
2012-7-23,92.8,81.2,68.9,74.1,68.3,63.0,95,68,42,29.99,29.65,14,2,22,0.54
2012-7-24,81.5,75.9,63.0,71.5,64.0,56.7,84,68,46,29.86,29.66,10,1,18,0.00
2012-7-25,83.2,70.9,60.0,62.7,59.2,56.5,95,69,42,29.94,29.70,5,0,8,0.07
2012-7-26,82.1,72.7,63.7,72.8,67.8,61.1,96,85,66,29.69,29.53,10,1,18,1.24
2012-7-27,79.5,72.1,65.3,69.7,65.6,61.9,98,81,58,29.88,29.62,3,0,9,0.04
2012-7-28,78.9,70.7,64.0,70.7,66.2,61.6,98,86,63,29.97,29.87,5,0,12,0.20
2012-7-29,84.4,72.4,59.6,67.8,60.1,51.9,98,70,35,30.02,29.95,7,0,7,0.01
2012-7-30,87.6,73.1,60.6,66.8,60.2,53.0,93,68,32,30.01,29.92,7,1,10,0.00
2012-7-31,88.0,71.9,66.5,71.9,66.2,62.5,96,84,54,29.93,29.74,8,1,17,0.44
2012-8-1,82.7,73.0,64.9,70.7,65.9,62.3,97,80,55,29.83,29.78,7,1,9,0.00
2012-8-2,85.4,74.3,63.6,72.6,66.1,62.4,97,78,54,29.85,29.79,5,0,11,0.01
2012-8-3,87.5,75.4,69.4,74.2,66.7,63.2,83,75,55,30.00,29.84,3,0,7,0.00
2012-8-4,92.3,81.5,70.0,76.6,71.1,67.8,93,73,50,30.03,29.91,8,1,19,0.00
2012-8-5,86.6,76.7,65.9,75.2,70.7,64.4,96,82,67,29.97,29.80,9,2,15,1.19
2012-8-6,78.0,66.5,58.5,63.8,59.4,56.3,95,80,54,30.08,29.97,5,1,9,0.01
2012-8-7,84.8,72.4,56.8,62.5,59.1,55.1,94,66,38,29.97,29.88,5,1,9,0.00
2012-8-8,87.6,73.8,61.8,70.2,64.7,59.7,93,75,46,29.92,29.85,6,0,12,0.00
2012-8-9,79.7,72.1,65.8,71.1,66.8,63.8,94,84,62,29.87,29.76,5,0,10,0.00
2012-8-10,78.7,70.4,66.3,69.4,66.4,63.6,97,88,70,29.78,29.63,5,0,10,0.08
2012-8-11,75.7,69.1,63.7,66.5,62.1,58.8,97,80,58,29.82,29.66,8,2,17,0.01
2012-8-12,78.0,68.0,61.1,66.6,62.7,58.6,92,84,63,29.91,29.81,5,1,15,0.01
2012-8-13,82.5,70.3,62.4,65.2,62.6,60.0,95,78,48,29.97,29.90,3,0,9,0.00
2012-8-14,79.9,68.1,63.2,68.1,63.9,60.2,98,87,61,29.91,29.78,4,0,16,0.67
2012-8-15,78.3,68.4,60.5,66.6,62.6,58.7,99,84,54,29.91,29.83,4,0,9,0.01
2012-8-16,83.0,73.4,61.6,66.7,62.5,59.9,96,71,47,29.93,29.75,4,0,9,0.00
2012-8-17,75.0,69.3,59.5,66.6,61.7,55.0,94,77,59,29.86,29.67,7,1,10,0.04
2012-8-18,72.4,62.0,52.3,55.8,52.3,48.1,94,73,45,29.96,29.86,4,0,10,0.00
2012-8-19,80.0,63.8,51.9,57.6,53.6,49.8,93,73,41,29.95,29.83,5,0,10,0.00
2012-8-20,74.0,64.1,54.8,59.2,55.0,51.2,96,74,45,29.93,29.84,5,0,10,0.00
2012-8-21,77.4,63.3,50.3,57.2,53.2,48.6,95,73,39,30.05,29.93,3,0,7,0.00
2012-8-22,80.3,66.0,53.7,62.6,57.2,51.0,92,75,47,30.11,30.05,5,0,9,0.00
2012-8-23,83.0,69.4,56.2,64.2,58.6,53.5,91,71,45,30.12,30.07,3,0,9,0.00
2012-8-24,87.9,71.9,58.3,63.9,59.9,56.0,93,69,38,30.14,30.08,8,0,8,0.00
2012-8-25,90.0,75.5,63.8,68.6,63.1,59.4,87,68,40,30.18,30.10,5,1,9,0.00
2012-8-26,85.3,73.6,62.0,68.1,63.6,58.7,90,72,54,30.22,30.05,5,1,10,0.00
2012-8-27,80.5,71.6,66.6,70.1,66.6,62.5,96,85,68,30.06,29.86,7,1,11,0.20
2012-8-28,77.9,69.9,62.2,67.6,62.8,56.0,96,80,56,29.97,29.84,6,1,12,0.01
2012-8-29,72.8,63.8,54.7,56.5,51.8,44.9,87,67,38,30.05,29.97,4,0,9,0.00
2012-8-30,81.4,58.9,51.6,63.9,53.2,49.2,93,83,54,30.06,30.00,9,1,10,0.00
2012-8-31,77.4,75.5,72.1,69.8,65.7,62.5,78,72,66,29.94,29.89,1,0,6,0.00
2012-9-1,79.1,67.8,61.1,66.1,60.5,55.3,94,79,45,30.07,29.94,6,0,7,0.00
2012-9-2,84.3,68.7,55.8,61.3,57.8,53.7,95,72,38,30.05,29.99,6,1,11,0.00
2012-9-3,87.0,72.3,58.6,71.9,64.9,55.8,94,79,60,30.01,29.90,7,1,13,0.00
2012-9-4,81.2,71.0,66.8,73.0,68.9,65.9,98,93,75,29.92,29.71,7,0,13,2.03
2012-9-5,80.1,70.8,63.9,69.1,66.2,63.3,99,86,66,29.86,29.78,3,0,6,0.03
2012-9-6,81.0,72.1,63.6,72.1,66.2,61.8,94,82,58,29.85,29.75,4,0,8,0.00
2012-9-7,84.1,71.0,59.1,69.2,63.7,58.2,98,80,54,29.89,29.65,3,0,9,0.01
2012-9-8,70.3,65.1,55.4,67.7,61.2,53.7,95,87,69,29.74,29.36,10,1,20,0.17
2012-9-9,67.8,59.8,52.9,56.8,52.1,47.2,95,77,48,29.96,29.74,6,1,11,0.00
2012-9-10,68.6,57.8,47.5,49.8,45.9,41.9,95,67,39,30.13,29.96,7,1,15,0.00
2012-9-11,76.4,60.0,46.3,58.3,51.1,44.2,94,75,47,30.23,30.13,5,0,8,0.00
2012-9-12,82.5,67.7,53.0,62.8,56.8,50.2,90,71,42,30.26,30.17,8,1,9,0.00
2012-9-13,80.7,64.4,57.6,63.3,58.7,54.3,91,82,51,30.23,30.15,3,0,3,0.00
2012-9-14,80.8,65.1,53.6,67.5,59.9,51.6,95,84,58,30.15,30.00,6,1,17,0.25
2012-9-15,66.9,57.1,49.9,54.8,51.7,48.4,96,83,59,30.21,30.11,3,0,8,0.00
2012-9-16,73.0,59.8,47.0,59.1,52.7,45.7,97,79,54,30.12,29.99,4,0,11,0.01
2012-9-17,76.8,63.7,52.5,60.0,53.7,50.2,93,72,44,30.01,29.81,6,1,11,0.00
2012-9-18,73.6,62.0,50.2,66.2,58.5,46.2,97,89,75,29.81,29.41,6,1,17,0.53
2012-9-19,61.8,52.6,45.5,47.5,45.0,41.4,94,77,50,30.15,29.77,7,1,13,0.00
2012-9-20,71.7,54.9,43.2,50.2,45.4,40.8,93,73,45,30.13,29.90,9,2,13,0.00
2012-9-21,71.8,60.3,56.3,61.4,56.8,54.3,97,89,69,29.87,29.82,1,0,8,0.25
2012-9-22,62.9,57.4,51.3,56.5,51.6,43.8,96,81,65,29.89,29.63,6,1,17,0.24
2012-9-23,59.4,51.9,44.0,45.7,42.6,40.4,91,73,50,30.06,29.88,12,2,17,0.00
2012-9-24,55.3,52.2,49.9,42.0,41.7,41.4,73,68,60,29.97,29.94,3,1,11,0.01
2012-9-25,72.5,68.7,55.8,49.0,47.2,44.3,70,47,38,29.97,29.91,7,3,13,0.00
2012-9-27,59.3,52.2,47.7,45.2,44.8,43.8,89,76,58,30.18,30.16,1,0,7,0.00
2012-9-28,56.6,51.1,42.9,52.2,47.8,41.6,95,88,79,30.15,30.02,1,0,6,0.00
2012-9-29,63.2,52.8,44.7,53.8,47.5,43.0,95,83,60,30.02,29.92,3,0,5,0.00
2012-9-30,57.0,52.9,49.5,53.1,50.0,47.8,97,90,80,29.92,29.81,4,0,11,0.42
2012-10-1,65.8,57.9,51.3,55.2,51.3,48.5,93,79,62,29.90,29.78,6,1,15,0.00
2012-10-2,63.3,61.7,58.8,61.0,58.6,54.6,93,89,85,29.90,29.87,0,0,5,0.01
2012-10-3,71.7,65.1,60.7,66.7,62.7,59.8,97,92,78,30.08,29.91,4,0,7,0.01
2012-10-4,74.9,68.3,59.6,59.3,55.1,53.4,80,64,49,30.07,30.00,7,1,12,0.00
2012-10-5,70.9,61.8,53.9,61.0,55.8,51.1,93,81,70,30.00,29.84,8,1,15,0.02
2012-10-6,53.9,48.9,44.2,51.8,43.1,35.5,96,82,55,30.01,29.78,7,1,17,0.92
2012-10-7,51.8,45.7,38.6,43.7,40.0,37.0,94,81,62,30.09,29.99,3,0,10,0.09
2012-10-8,54.7,44.2,36.9,44.5,39.9,35.6,96,86,63,30.21,30.10,4,0,9,0.01
2012-10-9,62.2,47.3,35.6,45.9,40.8,34.0,96,80,50,30.21,29.95,4,0,10,0.01
2012-10-10,52.2,47.0,43.1,44.2,39.0,34.7,91,74,59,29.96,29.80,13,1,18,0.00
2012-10-11,55.7,47.3,36.8,39.8,35.0,32.0,86,63,47,30.16,29.96,8,2,17,0.00
2012-10-12,53.0,44.2,37.3,44.8,35.3,24.7,92,73,43,30.40,30.00,8,2,13,0.15
2012-10-13,48.5,46.2,45.3,43.0,40.1,34.8,90,79,59,30.12,29.95,4,1,9,0.11
2012-10-14,72.1,62.2,47.5,62.6,56.1,43.5,97,81,64,29.92,29.57,8,2,12,0.31
2012-10-15,66.7,56.3,45.7,57.9,49.2,38.3,88,77,65,29.76,29.45,13,3,20,0.01
2012-10-16,53.3,46.2,38.3,39.3,37.4,35.9,92,73,57,29.89,29.85,6,1,12,0.00
2012-10-17,65.7,59.8,53.8,48.0,45.1,42.9,70,59,50,29.88,29.77,7,1,10,0.00
2012-10-18,67.4,61.1,50.6,50.1,48.1,45.8,91,63,51,29.84,29.67,11,2,22,0.12
2012-10-19,64.7,53.5,45.5,55.3,50.6,44.4,98,90,70,29.86,29.58,5,0,9,0.34
2012-10-20,56.9,51.0,46.0,54.5,45.9,42.8,97,83,63,29.74,29.57,8,2,21,0.03
2012-10-21,61.4,55.9,49.7,47.7,45.9,41.9,91,71,50,30.05,29.94,14,3,17,0.00
2012-10-22,67.3,53.3,44.7,51.0,46.6,42.2,94,80,52,30.10,30.03,8,1,11,0.00
2012-10-23,52.2,50.9,47.9,51.3,49.1,44.1,97,94,80,30.08,30.00,4,0,10,0.73
2012-10-24,56.8,53.9,50.6,55.6,52.8,49.8,98,96,92,30.09,30.05,2,0,4,0.01
2012-10-25,80.8,66.5,56.3,62.7,58.5,55.5,98,78,48,30.08,29.94,6,1,12,0.00
2012-10-26,76.2,61.2,47.6,60.9,53.1,46.0,94,76,55,30.14,29.95,9,2,14,0.02
2012-10-27,50.8,48.5,44.8,50.3,47.6,44.0,98,97,94,30.13,29.94,4,0,8,0.46
2012-10-28,44.7,43.5,42.8,44.0,42.7,42.0,98,97,96,30.06,29.87,5,1,12,0.35
2012-10-29,51.4,46.2,44.6,50.0,45.5,44.1,98,97,95,29.87,29.09,20,3,29,1.22
2012-10-30,56.8,52.0,42.9,54.2,48.2,39.8,94,87,72,29.39,29.06,16,3,32,0.15
2012-10-31,47.1,43.6,41.5,41.0,39.2,37.5,92,84,71,29.43,29.37,5,0,7,0.01
2012-11-1,44.8,43.2,41.6,43.3,40.7,37.9,96,91,84,29.59,29.41,17,3,17,0.16
2012-11-2,41.5,39.4,37.4,38.9,35.2,32.3,91,85,75,29.85,29.59,10,2,15,0.04
2012-11-3,40.6,38.3,36.2,34.5,32.5,29.9,92,79,71,30.07,29.85,8,2,14,0.01
2012-11-4,37.3,34.7,33.0,33.6,30.3,27.7,94,84,75,30.10,30.05,6,1,11,0.02
2012-11-5,34.2,33.5,33.1,26.1,25.4,23.3,75,72,64,30.19,30.18,0,0,4,0.01
2012-11-6,41.9,35.3,29.2,28.4,25.9,22.6,81,69,54,30.19,30.07,4,0,7,0.00
2012-11-7,41.2,32.8,23.4,31.0,25.4,21.3,94,75,49,30.12,30.06,4,0,10,0.00
2012-11-8,43.0,36.8,30.2,27.8,24.4,22.5,76,61,48,30.13,30.07,5,1,10,0.00
2012-11-9,48.5,40.8,30.0,40.5,35.2,24.5,88,80,67,30.27,30.08,7,1,13,0.00
2012-11-10,50.9,45.9,38.6,45.0,42.1,37.4,97,87,72,30.36,30.24,5,0,10,0.04
2012-11-11,72.2,59.1,49.1,48.3,44.3,41.2,91,60,40,30.33,30.22,7,1,16,0.14
2012-11-12,68.2,57.6,41.4,52.7,46.3,38.7,91,67,52,30.22,29.93,22,4,22,0.36
2012-11-13,40.5,37.4,35.6,38.1,27.8,22.8,91,68,56,30.61,30.23,9,2,22,0.01
2012-11-14,39.6,35.7,28.5,33.3,29.3,25.6,91,78,66,30.69,30.56,3,0,5,0.00
2012-11-15,47.9,33.9,26.7,32.6,28.1,25.2,94,81,45,30.57,30.42,7,0,7,0.01
2012-11-16,48.4,35.0,26.1,37.3,30.6,24.6,96,85,60,30.59,30.42,3,0,5,0.01
2012-11-17,51.0,40.8,30.1,39.2,34.5,28.8,100,80,58,30.72,30.68,4,0,6,0.00
2012-11-18,50.4,36.8,27.4,38.4,32.0,26.2,96,84,54,30.72,30.58,3,0,7,0.01
2012-11-19,52.6,38.0,30.3,37.5,32.8,27.7,95,83,56,30.58,30.32,6,0,7,0.01
2012-11-20,49.7,38.9,32.6,39.4,34.8,30.9,94,86,59,30.31,30.20,2,0,5,0.00
2012-11-21,54.6,37.9,27.7,41.0,33.9,26.7,97,87,48,30.33,30.24,3,0,6,0.00
2012-11-22,62.7,44.1,33.7,43.8,35.0,28.4,91,72,46,30.28,30.03,3,0,7,0.00
2012-11-23,55.2,46.0,34.6,46.3,36.3,26.9,90,69,57,30.02,29.70,11,4,20,0.03
2012-11-24,36.7,33.6,31.6,27.7,25.1,20.9,85,71,62,29.99,29.77,18,4,20,0.01
2012-11-25,34.1,32.0,31.1,29.8,25.9,21.8,90,79,66,29.98,29.89,10,2,12,0.01
2012-11-26,38.6,35.0,32.4,30.6,27.4,23.0,82,74,65,30.31,29.94,8,2,14,0.01
2012-11-27,38.6,32.9,29.5,30.7,24.6,22.1,77,71,61,30.38,30.30,5,0,7,0.00
2012-11-28,37.0,33.7,31.5,29.8,25.7,22.7,88,72,64,30.33,30.22,10,2,16,0.00
2012-11-29,43.9,39.0,30.6,34.8,31.2,22.5,82,73,67,30.36,30.25,7,2,13,0.00
2012-11-30,36.6,28.7,26.0,31.6,24.7,22.0,92,85,79,30.52,30.36,5,1,11,0.00
2012-12-1,46.7,36.5,27.3,38.9,31.8,25.2,93,83,74,30.47,30.26,6,1,11,0.05
2012-12-2,53.1,49.3,46.1,51.2,44.8,38.3,96,85,73,30.26,29.95,9,4,16,0.17
2012-12-3,51.9,45.5,41.3,46.3,42.0,39.2,95,88,76,30.30,30.14,5,0,9,0.00
2012-12-4,68.3,57.8,49.5,56.3,52.6,44.2,93,83,62,30.14,29.93,9,2,12,0.20
2012-12-5,46.5,35.5,29.8,42.8,27.6,19.0,89,73,63,30.45,30.01,12,2,17,0.00
2012-12-6,39.1,31.7,23.3,25.9,22.9,19.5,92,70,58,30.48,30.13,6,1,11,0.00
2012-12-7,44.4,41.1,40.2,39.6,38.7,38.1,93,91,83,30.05,30.01,2,0,5,0.00
2012-12-8,45.1,40.9,35.5,44.3,39.5,31.2,97,95,84,30.22,29.82,6,1,12,0.13
2012-12-9,42.8,34.5,29.4,41.5,31.0,25.9,96,87,78,30.37,29.83,10,1,12,0.29
2012-12-10,52.4,43.8,34.3,49.8,41.1,30.8,95,90,83,29.82,29.57,10,3,15,0.10
2012-12-11,34.2,29.3,25.8,30.7,26.2,24.2,95,88,81,30.25,29.81,4,1,9,0.01
2012-12-12,40.6,34.7,29.7,32.5,29.7,27.5,93,82,69,30.50,30.25,9,2,15,0.01
2012-12-13,45.7,35.0,27.3,29.6,26.7,24.0,90,73,51,30.52,30.27,6,1,10,0.00
2012-12-14,45.2,36.5,30.4,33.9,28.6,22.8,92,74,62,30.35,30.22,7,2,14,0.00
2012-12-15,40.0,35.3,30.3,34.6,31.8,28.3,95,87,76,30.39,30.05,3,0,7,0.00
2012-12-16,54.5,46.1,39.1,43.4,39.2,33.5,88,77,66,30.06,29.76,13,5,21,0.03
2012-12-17,47.9,46.3,44.2,45.3,43.0,41.6,96,88,81,29.81,29.61,5,1,8,0.19
2012-12-18,44.7,41.9,38.9,43.6,39.0,30.0,97,90,68,29.78,29.52,10,2,15,0.48
2012-12-19,42.7,36.6,30.8,34.1,31.0,26.1,96,80,65,30.27,29.80,10,1,13,0.00
2012-12-20,41.8,39.1,35.9,36.4,34.9,31.5,88,85,81,29.69,29.50,16,8,24,0.19
2012-12-21,41.6,35.6,29.8,37.8,33.9,28.5,96,94,82,29.52,29.25,12,3,17,0.38
2012-12-22,32.2,29.3,26.9,27.8,25.4,23.8,95,86,73,29.98,29.41,14,6,23,0.00
2012-12-23,35.3,31.9,28.3,28.8,26.0,20.2,89,79,70,30.08,29.86,10,3,16,0.05
2012-12-24,34.1,30.2,28.4,27.1,23.3,21.5,93,75,64,30.14,29.96,6,1,9,0.00
2012-12-25,32.3,29.4,28.2,28.6,26.2,24.8,95,88,79,30.42,29.99,3,0,9,0.09
2012-12-26,28.6,27.7,26.3,27.6,26.5,25.3,96,95,95,29.98,29.89,8,3,17,0.00
2012-12-27,28.1,25.3,23.3,27.1,24.0,22.1,96,95,92,30.12,29.80,9,2,17,0.00
2012-12-28,28.5,25.2,22.2,26.2,23.2,20.5,93,92,90,30.22,30.12,7,1,12,0.01
2012-12-29,28.8,25.9,21.5,27.3,24.5,19.8,95,94,92,30.13,29.76,2,0,4,0.01
2012-12-30,27.6,25.1,22.3,23.7,21.0,19.5,94,85,73,30.32,29.91,10,3,18,0.00
2012-12-31,35.3,31.1,26.3,30.2,25.7,22.2,87,80,68,30.27,29.92,10,4,18,0.00
2013-1-1,33.7,23.4,10.8,28.7,16.9,7.2,87,76,65,30.13,29.92,9,2,18,0.00